TimeCST,TemperatureF,Dew PointF,Humidity,Sea Level PressureIn,VisibilityMPH,Wind Direction,Wind SpeedMPH,Gust SpeedMPH,PrecipitationIn,Events,Conditions,WindDirDegrees,DateUTC
12:53 AM,21.9,7.0,53,30.21,10.0,NNW,11.5,26.5,N/A,,Clear,330,2012-11-26 06:53:00
1:53 AM,19.9,6.1,55,30.24,10.0,NW,11.5,-,N/A,,Clear,310,2012-11-26 07:53:00
2:53 AM,17.1,7.0,65,30.26,10.0,NW,11.5,-,N/A,,Clear,310,2012-11-26 08:53:00
3:53 AM,15.1,7.0,70,30.29,10.0,NW,10.4,-,N/A,,Clear,320,2012-11-26 09:53:00
4:53 AM,12.9,6.1,74,30.31,10.0,NNW,9.2,-,N/A,,Clear,330,2012-11-26 10:53:00
5:53 AM,12.9,6.1,74,30.33,10.0,NW,5.8,-,N/A,,Partly Cloudy,320,2012-11-26 11:53:00
6:53 AM,12.0,6.1,77,30.36,10.0,NNW,6.9,-,N/A,,Clear,330,2012-11-26 12:53:00
7:53 AM,10.9,5.0,77,30.40,10.0,NNW,9.2,-,N/A,,Clear,330,2012-11-26 13:53:00
8:53 AM,12.9,5.0,71,30.40,10.0,North,10.4,-,N/A,,Clear,350,2012-11-26 14:53:00
9:53 AM,15.1,6.1,68,30.43,10.0,NW,8.1,-,N/A,,Clear,320,2012-11-26 15:53:00
10:53 AM,17.1,6.1,62,30.45,10.0,NNW,8.1,-,N/A,,Clear,340,2012-11-26 16:53:00
11:53 AM,19.0,5.0,54,30.46,10.0,WNW,6.9,-,N/A,,Clear,300,2012-11-26 17:53:00
12:53 PM,19.9,3.0,48,30.44,10.0,WNW,8.1,-,N/A,,Clear,300,2012-11-26 18:53:00
1:53 PM,21.0,3.9,48,30.43,10.0,Variable,4.6,-,N/A,,Clear,0,2012-11-26 19:53:00
2:53 PM,21.9,5.0,48,30.43,10.0,WNW,5.8,-,N/A,,Clear,290,2012-11-26 20:53:00
3:53 PM,21.0,6.1,53,30.43,10.0,WNW,8.1,-,N/A,,Clear,290,2012-11-26 21:53:00
4:53 PM,19.0,6.1,57,30.44,10.0,West,5.8,-,N/A,,Clear,280,2012-11-26 22:53:00
5:53 PM,18.0,6.1,60,30.44,10.0,WSW,3.5,-,N/A,,Clear,250,2012-11-26 23:53:00
6:53 PM,17.1,6.1,62,30.43,10.0,SW,3.5,-,N/A,,Clear,230,2012-11-27 00:53:00
7:53 PM,16.0,7.0,68,30.42,10.0,WSW,4.6,-,N/A,,Clear,250,2012-11-27 01:53:00
8:53 PM,15.1,7.0,70,30.41,10.0,SW,4.6,-,N/A,,Clear,220,2012-11-27 02:53:00
9:53 PM,14.0,7.0,74,30.41,10.0,SSW,3.5,-,N/A,,Clear,210,2012-11-27 03:53:00
10:53 PM,14.0,7.0,74,30.39,10.0,SSW,5.8,-,N/A,,Clear,210,2012-11-27 04:53:00
11:53 PM,14.0,7.0,74,30.39,10.0,SSW,5.8,-,N/A,,Clear,200,2012-11-27 05:53:00